Location: Bruch
(44.2051°N, 0.4120°E)
Time: 12:25:15
(UTC+00:00)

COSMO-SKYMED 1 - Pass Details

Date: 29 November 2020
Orbit: 621 x 623 km, 97.9° (Epoch: 26 January)

Event Time Altitude Azimuth Distance (km) Brightness Sun altitude
Rises 04:59:20 0° 161° (SSE) 2,889 6.4 -23.1°
Reaches altitude 10° 05:01:31 10° 160° (SSE) 1,987 5.5 -22.8°
Maximum altitude 05:05:49 75° 76° (ENE) 649 2.7 -22.0°
Enters shadow 05:08:41 21° 353° (N) 1,406 4.2 -21.5°
